Flag for Germany Weather past 2 weeks in Borken, North Rhine-Westphalia, Germany

Now
64 °F

Clear.


Feels Like: 64 °F
Forecast: 63 / 83 °F
Wind: 2 mph from Southeast

Location: Twenthe

Current Time: Aug 1, 2014 at 2:41:49 AM

Latest Report: Aug 1, 2014 at 2:00 AM


Visibility: 7 mi

Pressure: 29.91 "Hg

Humidity: 78%

Dew point: 57 °F

Location of BorkenLocation

Historic Weather in Borken — Graph

°F

Borken temperature yesterday

Maximum temperature yesterday: 75 °F (at 4:00 PM)
Minimum temperature yesterday: 53 °F (at 3:00 AM)
Average temperature yesterday: 64 °F

Past Weeks' High & Low Weather Summary

 TemperatureHumidityPressure
High92 °F (Jul 19, 4:00 PM)100% (Jul 26, 1:00 AM)30.18 "Hg (Jul 26, 1:00 AM)
Low53 °F (Jul 31, 3:00 AM)28% (Jul 19, 4:00 PM)29.75 "Hg (Jul 20, 5:00 AM)
Average70 °F76%29.96 "Hg
* Reported Jul 17 1:00 AM — Aug 1 1:00 AM, Borken, Weather by CustomWeather, © 2014

Note: Actual official high and low records may vary slightly from our data, if they occured in-between our weather recording intervals... More about our weather records

Advertising

Borken weather history for previous 24 hours

 ConditionsComfort  
Time TempWeatherWind HumidityBarometerVisibility
1:00 AM
Aug 1
58 °FPassing clouds.No wind98%29.92 "Hg6 mi
12:00 AM58 °FFog.No wind97%29.93 "Hg6 mi
11:00 PM
Jul 31
59 °FClear.No wind96%29.92 "Hg7 mi
10:00 PM62 °FFog.No wind90%29.93 "Hg4 mi
9:00 PM68 °FSunny.1 mph72%29.93 "Hg11 mi
8:00 PM73 °FSunny.2 mph60%29.93 "Hg12 mi
7:00 PM75 °FSunny.3 mph52%29.93 "Hg12 mi
6:00 PM75 °FPassing clouds.2 mph52%29.95 "Hg13 mi
5:00 PM75 °FPassing clouds.2 mph51%29.96 "Hg14 mi
4:00 PM75 °FPassing clouds.2 mph52%29.97 "Hg11 mi
3:00 PM74 °FPassing clouds.2 mph51%29.98 "Hg12 mi
2:00 PM73 °FSunny.3 mph54%29.98 "Hg14 mi
1:00 PM72 °FSunny.2 mph57%29.99 "Hg14 mi
12:00 PM70 °FSunny.3 mph60%30.00 "Hg13 mi
11:00 AM68 °FPassing clouds.3 mph68%30.01 "Hg14 mi
10:00 AM65 °FPassing clouds.3 mph72%30.01 "Hg10 mi
9:00 AM63 °FSunny.2 mph82%30.00 "Hg8 mi
8:00 AM59 °FPassing clouds.2 mph93%30.00 "Hg7 mi
7:00 AM54 °FFog.1 mph99%29.99 "Hg3 mi
6:00 AM53 °FSunny.1 mph99%29.99 "Hg1 mi
5:00 AM54 °FPassing clouds.1 mph100%29.99 "Hg3 mi
4:00 AM53 °FClear.1 mph98%29.99 "Hg0 mi
3:00 AM53 °FPassing clouds.1 mph99%29.98 "Hg2 mi
2:00 AM53 °FFog.No wind97%29.98 "Hg1 mi
Weather by CustomWeather, © 2014

See weather overviewHow to use our weather pages